Wind_Speed
24 24 24 24 23 23 23 23 23 23 23 23 23 23 23 23 23 23 23 23 23 22 22 22 22 22 23 23 24 24 24 24 25 25 25 25 25 25 25 25 24 24 24
22 22 22 22 22 22 22 22 21 22 22 22 22 22 21 21 21 21 22 22 21 20 21 21 21 21 21 22 22 22 23 23 23 23 23 24 24 24 24 24 24 24 24
20 20 20 20 20 20 20 20 20 20 20 20 20 20 20 19 19 18 18 18 19 19 19 19 19 19 20 20 20 21 21 21 21 22 22 22 22 22 23 24 24 23 23
19 18 19 19 19 19 19 18 18 18 17 17 17 17 16 16 16 15 15 15 15 16 17 17 18 18 18 18 19 19 20 20 20 21 21 21 21 21 21 21 22 22 22
18 17 18 18 18 18 17 17 16 16 16 16 15 15 14 13 13 13 13 14 14 15 16 16 17 17 17 17 17 17 18 18 18 19 19 19 19 20 20 19 20 20 20
16 16 17 16 17 17 17 17 17 16 15 14 14 13 12 11 10 10 11 12 12 12 13 14 15 15 15 15 15 16 16 16 16 16 16 16 16 17 17 17 17 17 17
15 15 15 15 15 15 16 15 15 14 13 13 12 12 11 10 9 9 9 9 9 9 9 10 11 11 12 13 13 14 14 15 15 14 14 14 14 14 14 15 15 15 15
13 14 14 14 14 14 14 13 13 12 12 12 11 10 10 9 8 8 9 8 8 7 8 8 9 9 9 10 11 12 13 13 13 13 13 13 13 13 13 13 13 14 14
12 13 13 13 12 12 12 12 12 12 12 11 10 9 8 8 8 7 7 7 7 6 6 7 7 8 8 8 8 9 9 10 11 11 11 11 12 11 12 12 12 12 13
11 11 11 11 11 11 11 11 11 11 12 11 10 10 9 8 8 7 6 5 5 5 5 5 5 6 6 6 6 7 8 9 10 10 9 10 11 11 11 11 12 12 13
10 10 11 11 10 10 10 10 10 11 11 11 10 10 9 8 8 7 6 5 5 5 5 4 4 4 4 4 5 6 7 8 8 8 8 8 9 10 11 11 12 12 12
10 10 10 10 10 10 9 10 10 11 11 11 11 10 9 8 8 7 7 6 5 4 4 3 4 3 3 3 4 5 5 5 6 6 7 8 8 9 10 11 11 12 12
9 9 9 10 9 9 10 10 10 10 10 10 11 10 10 9 8 7 7 6 5 4 3 3 3 2 2 2 3 3 4 5 5 6 6 7 8 9 10 10 10 11 11
8 8 8 9 9 9 9 10 10 10 10 10 10 10 10 9 8 7 7 7 5 4 4 3 2 2 2 1 2 3 4 5 6 6 6 7 7 8 8 9 10 10 11
8 8 8 8 8 9 9 10 10 10 10 10 10 9 9 9 8 7 8 6 5 5 4 3 3 3 2 2 3 3 4 5 6 6 7 7 8 8 9 9 10 10 11
7 8 7 7 7 8 9 9 10 11 11 11 10 9 9 9 8 8 7 6 5 5 4 4 3 3 3 3 4 4 4 5 6 7 7 8 9 10 10 10 11 11 11
7 7 8 7 7 7 8 8 9 10 11 11 10 10 10 9 9 8 7 6 6 5 5 5 4 4 5 6 6 6 7 7 8 8 9 9 10 11 11 11 12 12 13
7 7 7 7 7 7 7 8 9 10 10 11 11 11 10 10 9 7 6 6 6 6 6 6 6 6 7 8 8 8 8 9 9 10 11 11 12 12 13 13 14 15 15
7 8 8 7 7 8 8 9 9 10 10 10 10 10 10 10 9 8 8 8 7 7 7 7 8 8 9 9 10 10 11 11 12 13 13 14 15 15 15 16 16 17 18
8 8 8 9 8 9 9 9 9 10 10 10 10 10 10 10 10 10 9 9 9 9 9 10 10 10 11 11 12 13 13 14 15 15 16 17 18 18 19 19 20 22 22
8 8 8 8 9 9 9 10 10 10 10 11 11 11 11 11 11 11 10 10 11 11 11 12 13 13 14 14 15 16 16 17 17 18 19 19 20 21 21 22 23 24 25
8 9 9 9 9 10 10 10 11 11 12 12 12 12 12 12 12 12 12 12 12 13 14 15 16 16 17 18 18 19 20 20 20 20 21 21 22 23 24 25 25 26 26
9 9 10 10 10 11 11 11 12 12 13 13 13 13 14 14 15 15 15 15 16 16 17 17 18 19 20 20 21 21 22 22 22 23 23 24 24 25 26 27 28 28 28
9 10 11 11 12 12 13 13 13 14 14 14 14 15 15 16 17 17 18 18 19 20 20 21 22 22 22 23 23 23 24 24 25 25 26 27 27 28 28 29 30 30 31
10 11 12 13 13 14 14 15 15 16 16 16 16 17 18 19 20 20 21 22 22 22 23 24 25 25 25 25 26 26 27 27 28 29 30 30 31 31 32 32 33 34 34
12 13 13 14 14 15 16 16 17 17 18 18 19 20 21 22 23 23 24 24 25 25 26 26 27 27 27 27 28 28 29 30 30 31 32 33 33 34 34 35 35 36 36
Wind_Direction
304 303 303 304 302 302 301 299 298 295 294 292 290 289 286 282 278 275 272 270 269 267 266 264 264 264 262 260 259 258 258 259 258 257 258 260 262 263 263 263 262 262 262
306 306 306 305 305 305 303 302 299 296 295 295 293 290 287 285 281 276 272 271 269 267 265 265 264 263 262 261 261 260 258 257 257 256 258 259 261 263 263 264 265 266 264
308 309 309 309 309 309 308 307 304 301 300 298 298 295 290 285 283 279 274 272 268 265 264 264 263 263 264 262 260 260 257 256 256 257 258 260 260 263 264 263 264 263 264
309 311 313 312 312 313 314 311 307 306 304 303 303 301 298 290 283 279 276 275 272 266 264 263 263 263 263 261 261 259 257 257 256 256 258 260 261 263 264 264 263 264 264
310 313 315 316 315 315 315 313 313 312 309 307 305 302 298 294 287 280 277 277 276 270 268 266 265 264 264 262 261 259 257 257 257 258 260 259 259 261 262 263 265 265 265
311 313 315 318 320 318 316 315 317 316 313 311 309 305 299 294 292 284 283 284 282 276 273 269 266 265 263 262 259 256 256 258 258 260 259 256 257 259 261 262 263 265 265
313 315 319 322 323 324 323 322 323 323 320 318 316 313 307 304 302 294 289 287 284 279 279 276 272 267 263 260 256 253 255 255 255 255 253 253 255 258 260 261 261 262 263
315 318 320 322 325 326 328 330 332 334 332 328 325 322 315 311 305 300 296 297 290 287 286 286 281 274 269 264 256 254 255 251 251 252 251 252 254 257 259 262 261 262 263
321 321 323 326 329 332 335 339 340 340 340 339 338 336 327 319 313 305 299 298 296 291 294 292 286 279 274 270 263 258 255 254 254 254 252 252 251 255 256 259 261 261 260
324 324 328 332 335 339 341 341 344 346 348 350 350 348 338 329 328 325 315 308 305 299 298 297 296 288 279 267 260 256 257 257 255 252 254 253 252 256 256 258 260 261 262
328 329 333 338 340 342 343 346 351 352 352 352 351 350 347 342 339 338 330 317 312 308 302 296 301 294 278 264 259 261 260 255 255 257 258 259 258 259 259 261 263 264 264
329 332 337 339 340 343 345 347 348 351 353 353 353 355 354 352 348 345 341 330 319 313 310 304 309 296 271 268 269 263 263 261 263 265 267 264 262 263 265 266 265 265 266
329 336 344 347 347 347 349 352 353 353 356 358 358 358 359 359 356 353 351 350 350 350 342 327 321 310 285 270 267 262 263 268 271 270 273 274 274 273 271 269 268 268 269
343 347 346 350 352 354 355 355 356 355 354 355 358 1 2 1 359 359 359 2 7 9 9 359 344 319 318 294 282 269 261 263 268 271 274 276 277 280 281 279 276 274 272
346 347 348 352 357 357 357 360 1 360 357 357 357 0 5 3 2 2 3 2 4 9 5 355 340 332 329 308 298 291 275 268 271 272 274 274 276 279 282 283 280 277 276
346 349 348 348 350 353 357 360 2 3 4 3 1 358 1 3 2 359 358 357 357 353 348 347 338 325 319 313 311 300 294 292 287 282 282 281 281 281 279 280 283 281 282
351 354 356 358 353 352 354 357 0 2 3 3 3 1 358 357 356 354 354 352 348 345 340 336 327 315 311 308 305 300 294 292 291 291 289 287 286 286 286 285 283 283 282
357 357 358 2 1 358 358 355 354 356 358 359 359 1 3 4 4 1 355 346 338 334 332 328 323 314 309 306 301 298 295 292 292 291 291 291 292 292 291 287 286 285 285
5 3 3 3 3 0 357 355 354 354 353 352 353 356 359 1 359 358 352 345 337 331 327 322 314 307 303 301 299 298 296 295 294 292 289 288 289 289 288 286 286 287 288
9 9 7 5 2 360 356 355 354 353 352 349 347 345 345 345 344 341 337 332 329 326 323 320 316 311 307 304 301 299 296 294 292 290 290 290 289 288 287 287 287 288 289
9 9 7 3 359 356 354 353 352 350 349 347 343 341 340 338 335 332 330 326 324 322 320 316 313 309 305 301 299 298 296 295 293 291 290 290 289 289 288 288 288 288 288
7 5 2 358 354 351 348 346 344 343 342 340 338 337 335 334 332 330 326 322 318 317 314 311 308 305 302 300 299 298 296 295 293 292 291 291 291 290 289 289 289 289 289
359 358 356 354 351 348 345 342 339 338 337 336 335 334 332 330 326 323 320 316 314 313 311 308 305 303 301 300 299 297 296 295 294 294 293 292 292 292 291 291 291 290 289
351 348 347 346 345 343 341 339 337 334 333 331 330 329 327 324 322 319 316 314 311 309 307 305 304 303 302 300 298 297 296 295 294 294 293 292 291 291 291 290 291 290 290
348 346 343 341 340 338 336 334 332 329 327 325 323 321 319 318 316 313 311 310 308 306 305 304 304 303 301 300 298 297 296 295 294 294 294 293 293 292 290 290 290 290 290
345 344 342 340 338 336 334 332 330 328 326 323 320 318 317 315 314 312 310 308 308 307 306 305 305 304 302 300 298 297 296 295 295 295 294 294 293 293 292 291 290 290 290
Height
5781 5778 5774 5772 5769 5766 5763 5760 5758 5755 5753 5751 5749 5748 5746 5745 5744 5744 5744 5744 5745 5746 5746 5747 5748 5748 5749 5751 5752 5753 5754 5756 5757 5759 5760 5761 5762 5763 5763 5764 5765 5766 5766
5775 5772 5769 5766 5763 5760 5757 5755 5752 5750 5747 5745 5743 5741 5740 5738 5738 5737 5738 5738 5738 5739 5740 5741 5741 5742 5743 5745 5746 5747 5748 5749 5751 5752 5753 5755 5756 5757 5757 5758 5759 5759 5760
5771 5768 5765 5761 5758 5755 5753 5750 5747 5745 5742 5740 5738 5735 5734 5733 5732 5732 5732 5732 5733 5733 5734 5735 5736 5737 5738 5739 5740 5741 5742 5743 5745 5746 5747 5749 5750 5751 5751 5752 5752 5753 5754
5766 5763 5760 5757 5754 5751 5749 5746 5743 5740 5737 5735 5733 5731 5729 5728 5727 5727 5727 5727 5728 5728 5729 5730 5731 5732 5733 5734 5735 5736 5737 5738 5739 5741 5742 5743 5744 5745 5745 5746 5746 5747 5748
5762 5759 5756 5753 5750 5748 5745 5742 5739 5736 5733 5731 5729 5727 5726 5724 5723 5723 5723 5723 5724 5724 5724 5725 5726 5727 5728 5729 5730 5731 5732 5733 5734 5735 5736 5737 5738 5739 5740 5741 5741 5742 5742
5758 5756 5753 5750 5747 5744 5742 5739 5736 5733 5730 5728 5726 5724 5723 5721 5720 5720 5720 5720 5720 5720 5720 5721 5722 5723 5723 5724 5725 5726 5727 5729 5730 5731 5732 5733 5734 5734 5735 5736 5736 5737 5738
5755 5753 5750 5748 5745 5742 5739 5736 5734 5731 5728 5726 5724 5722 5721 5719 5718 5718 5718 5717 5717 5717 5717 5718 5718 5719 5719 5720 5721 5722 5723 5724 5726 5727 5727 5728 5729 5730 5731 5732 5732 5733 5733
5753 5751 5748 5746 5743 5740 5737 5735 5732 5729 5727 5724 5722 5721 5719 5718 5717 5716 5716 5715 5715 5715 5715 5715 5716 5716 5716 5717 5718 5719 5720 5721 5722 5723 5724 5725 5725 5726 5727 5728 5728 5729 5730
5751 5749 5746 5744 5741 5738 5736 5734 5731 5729 5726 5724 5722 5720 5718 5717 5716 5715 5714 5714 5713 5713 5713 5714 5714 5714 5714 5714 5715 5716 5717 5718 5719 5720 5720 5721 5722 5723 5723 5724 5725 5726 5726
5749 5747 5744 5742 5739 5737 5735 5733 5731 5728 5726 5723 5721 5719 5717 5716 5715 5714 5713 5713 5712 5712 5712 5712 5712 5712 5712 5713 5713 5714 5715 5716 5716 5717 5718 5718 5719 5720 5720 5721 5721 5722 5723
5747 5745 5743 5741 5739 5736 5734 5732 5730 5728 5726 5723 5721 5719 5717 5715 5714 5713 5712 5712 5711 5711 5711 5711 5711 5711 5711 5712 5712 5713 5713 5714 5714 5715 5716 5716 5717 5717 5718 5718 5718 5719 5719
5746 5744 5742 5740 5738 5736 5734 5732 5730 5728 5726 5723 5721 5719 5717 5716 5714 5713 5712 5711 5711 5711 5710 5710 5710 5710 5711 5711 5712 5712 5712 5713 5713 5714 5714 5714 5715 5715 5715 5716 5716 5716 5716
5745 5743 5742 5740 5738 5736 5734 5732 5730 5728 5726 5724 5722 5719 5717 5716 5715 5713 5712 5711 5711 5711 5710 5710 5710 5710 5710 5711 5711 5711 5711 5712 5712 5712 5713 5713 5713 5713 5713 5713 5713 5713 5713
5744 5743 5741 5739 5738 5736 5734 5732 5730 5728 5726 5724 5722 5720 5718 5716 5715 5714 5713 5712 5711 5711 5711 5710 5710 5710 5710 5710 5710 5710 5710 5711 5711 5711 5711 5711 5711 5711 5711 5711 5710 5710 5710
5744 5742 5741 5739 5738 5736 5734 5732 5731 5729 5727 5725 5723 5721 5719 5718 5716 5715 5714 5713 5712 5712 5711 5711 5711 5710 5710 5710 5710 5710 5709 5709 5709 5709 5709 5709 5709 5709 5709 5708 5708 5708 5707
5743 5742 5741 5739 5738 5736 5735 5733 5731 5729 5727 5725 5723 5722 5720 5719 5717 5716 5715 5714 5713 5712 5712 5711 5711 5710 5710 5710 5709 5709 5709 5708 5708 5708 5708 5707 5707 5706 5706 5705 5705 5704 5704
5743 5742 5741 5739 5738 5737 5735 5734 5732 5730 5728 5726 5724 5723 5721 5719 5718 5717 5716 5715 5714 5713 5712 5712 5711 5711 5710 5710 5709 5709 5708 5707 5707 5706 5706 5705 5704 5704 5703 5702 5702 5701 5700
5743 5742 5741 5739 5738 5737 5735 5734 5733 5731 5729 5727 5726 5724 5722 5720 5719 5717 5716 5715 5714 5713 5712 5712 5711 5710 5710 5709 5708 5707 5707 5706 5705 5704 5703 5702 5701 5700 5699 5699 5698 5697 5696
5744 5743 5741 5740 5739 5737 5736 5734 5733 5732 5730 5728 5727 5725 5723 5721 5719 5718 5716 5715 5714 5713 5712 5711 5710 5709 5708 5707 5706 5705 5704 5703 5702 5701 5700 5699 5698 5696 5695 5694 5693 5692 5691
5745 5744 5742 5741 5739 5738 5736 5735 5733 5732 5730 5729 5727 5725 5723 5721 5720 5718 5716 5715 5713 5712 5711 5709 5708 5707 5706 5705 5703 5702 5701 5700 5698 5697 5696 5694 5693 5691 5690 5689 5688 5686 5685
5746 5744 5743 5741 5740 5738 5737 5735 5734 5732 5730 5728 5727 5725 5723 5721 5719 5717 5716 5714 5712 5711 5709 5708 5706 5704 5703 5701 5700 5698 5697 5695 5694 5692 5691 5689 5687 5685 5684 5682 5681 5679 5678
5747 5745 5744 5742 5740 5739 5737 5735 5734 5732 5730 5728 5726 5724 5722 5720 5718 5716 5714 5712 5710 5708 5707 5705 5703 5701 5699 5697 5696 5694 5692 5690 5688 5686 5685 5683 5681 5679 5677 5675 5673 5671 5669
5747 5745 5744 5742 5740 5738 5737 5735 5733 5731 5729 5727 5725 5723 5721 5719 5716 5714 5712 5710 5708 5705 5703 5701 5699 5697 5695 5692 5690 5688 5686 5684 5682 5680 5678 5676 5674 5672 5670 5668 5666 5663 5661
5747 5745 5743 5742 5740 5738 5736 5734 5732 5729 5727 5725 5723 5721 5719 5716 5714 5711 5709 5706 5704 5701 5699 5696 5694 5691 5689 5686 5684 5682 5679 5677 5675 5673 5670 5668 5666 5664 5661 5659 5657 5654 5652
5747 5745 5743 5741 5739 5737 5734 5732 5730 5728 5725 5723 5720 5718 5715 5713 5710 5707 5704 5701 5699 5696 5693 5690 5688 5685 5682 5679 5677 5674 5672 5669 5667 5664 5661 5659 5657 5654 5651 5649 5646 5644 5641
5746 5744 5742 5740 5737 5735 5733 5730 5727 5725 5722 5719 5717 5714 5711 5708 5705 5702 5699 5696 5693 5690 5687 5684 5680 5677 5674 5671 5668 5666 5663 5660 5657 5654 5651 5649 5646 5644 5641 5638 5635 5632 5630